Weather History for KBPC - February, 2012

Change the Weather History Date:

Sunday, February 5, 2012

  Actual Average (KBGD) Record (KBGD)
Temperature  
Mean Temperature 34 °F 41 °F  
Max Temperature 42 °F 54 °F 79 °F (1963)
Min Temperature 26 °F 28 °F -5 °F (1989)
Degree Days  
Heating Degree Days 31 24  
Month to date heating degree days 123  
Since 1 July heating degree days 2475  
Cooling Degree Days 0 0  
Month to date cooling degree days 0  
Year to date cooling degree days 0  
Moisture  
Dew Point 23 °F    
Average Humidity 71    
Maximum Humidity 100    
Minimum Humidity 31    
Precipitation  
Precipitation 0.00 in 0.02 in 0.17 in (1998)
Month to date precipitation 0.12  
Year to date precipitation 0.71  
Snow  
Snow 0.00 in - 2.00 in (2014)
Month to date snowfall  
Since 1 July snowfall  
Snow Depth -    
Sea Level Pressure  
Sea Level Pressure 30.42 in    
Wind  
Wind Speed 4 mph (North)    
Max Wind Speed 9 mph    
Max Gust Speed -    
Visibility 10 miles    
Events      
T = Trace of Precipitation, MM = Missing Value Source: NWS Daily Summary

Daily Weather History Graph

Daily Weather History Graph

Search for Another Location

Airport or City:

Trip Planner

Search our weather history database for the weather conditions in past years. The results will help you decide how hot, cold, wet, or windy it might be!

Date:

Astronomy

Feb. 05, 2012 Rise Set
Actual Time 7:41 AM CST 6:15 PM CST
Civil Twilight 7:14 AM CST 6:41 PM CST
Nautical Twilight 6:44 AM CST 7:12 PM CST
Astronomical Twilight 6:14 AM CST 7:42 PM CST
Moon 4:17 PM CST (2/5) 5:51 AM CST (2/5)
Length of Visible Light 11h 26m
Length of Day
10h 33m
Waxing Gibbous, 95% of the Moon is Illuminated
Feb 5
Waxing Gibbous
Feb 7
Full
Feb 14
Last Quarter
Feb 21
New
Feb 29
First Quarter

Hourly Weather History & Observations

Time (CST) Temp. Windchill Dew Point Humidity Pressure Visibility Wind Dir Wind Speed Gust Speed Precip Events Conditions
12:15 AM 26.6 °F 19.1 °F 26.6 °F 100% 30.43 in 10.0 mi WNW 6.9 mph - N/A   Clear
12:35 AM 28.4 °F 21.2 °F 28.4 °F 100% 30.43 in 10.0 mi WNW 6.9 mph - N/A   Clear
12:55 AM 28.4 °F 24.6 °F 28.4 °F 100% 30.43 in 10.0 mi NW 3.5 mph - N/A   Clear
1:15 AM 28.4 °F - 28.4 °F 100% 30.44 in 10.0 mi Calm Calm - N/A   Clear
1:35 AM 28.4 °F 24.6 °F 28.4 °F 100% 30.44 in 10.0 mi NW 3.5 mph - N/A   Clear
2:15 AM 30.2 °F 26.7 °F 26.6 °F 86% 30.43 in 10.0 mi NW 3.5 mph - N/A   Clear
2:35 AM 30.2 °F 25.4 °F 26.6 °F 86% 30.43 in 10.0 mi NNW 4.6 mph - N/A   Clear
2:55 AM 28.4 °F - 26.6 °F 93% 30.43 in 10.0 mi Calm Calm - N/A   Clear
3:15 AM 28.4 °F 24.6 °F 26.6 °F 93% 30.42 in 10.0 mi NNW 3.5 mph - N/A   Clear
3:35 AM 28.4 °F 21.2 °F 26.6 °F 93% 30.42 in 10.0 mi North 6.9 mph - N/A   Clear
3:55 AM 28.4 °F 23.3 °F 26.6 °F 93% 30.42 in 10.0 mi North 4.6 mph - N/A   Clear
4:15 AM 28.4 °F 22.2 °F 26.6 °F 93% 30.42 in 10.0 mi North 5.8 mph - N/A   Clear
4:35 AM 28.4 °F 20.4 °F 26.6 °F 93% 30.42 in 10.0 mi North 8.1 mph - N/A   Clear
4:55 AM 28.4 °F 21.2 °F 26.6 °F 93% 30.42 in 10.0 mi North 6.9 mph - N/A   Clear
5:15 AM 28.4 °F 21.2 °F 24.8 °F 86% 30.42 in 10.0 mi North 6.9 mph - N/A   Clear
5:35 AM 28.4 °F 22.2 °F 24.8 °F 86% 30.42 in 10.0 mi North 5.8 mph - N/A   Clear
5:55 AM 28.4 °F 23.3 °F 24.8 °F 86% 30.42 in 10.0 mi North 4.6 mph - N/A   Clear
6:15 AM 26.6 °F 22.6 °F 23.0 °F 86% 30.42 in 10.0 mi North 3.5 mph - N/A   Clear
6:35 AM 26.6 °F 21.2 °F 24.8 °F 93% 30.42 in 10.0 mi North 4.6 mph - N/A   Clear
6:55 AM 26.6 °F 20.0 °F 23.0 °F 86% 30.42 in 10.0 mi North 5.8 mph - N/A   Clear
7:15 AM 26.6 °F 20.0 °F 23.0 °F 86% 30.42 in 10.0 mi North 5.8 mph - N/A   Clear
7:35 AM 26.6 °F 19.1 °F 23.0 °F 86% 30.43 in 10.0 mi North 6.9 mph - N/A   Clear
7:55 AM 26.6 °F 19.1 °F 23.0 °F 86% 30.43 in 10.0 mi North 6.9 mph - N/A   Clear
8:15 AM 26.6 °F 20.0 °F 24.8 °F 93% 30.44 in 10.0 mi North 5.8 mph - N/A   Clear
8:35 AM 28.4 °F 24.6 °F 24.8 °F 86% 30.45 in 10.0 mi North 3.5 mph - N/A   Clear
8:55 AM 28.4 °F - 26.6 °F 93% 30.46 in 10.0 mi Calm Calm - N/A   Clear
9:15 AM 30.2 °F 26.7 °F 26.6 °F 86% 30.46 in 10.0 mi North 3.5 mph - N/A   Clear
9:35 AM 30.2 °F - 26.6 °F 86% 30.47 in 10.0 mi Calm Calm - N/A   Clear
10:15 AM 32.0 °F 28.7 °F 26.6 °F 80% 30.47 in 10.0 mi North 3.5 mph - N/A   Clear
10:35 AM 32.0 °F - 26.6 °F 80% 30.48 in 10.0 mi Calm Calm - N/A   Clear
10:55 AM 33.8 °F - 26.6 °F 75% 30.48 in 10.0 mi Calm Calm - N/A   Clear
11:15 AM 33.8 °F 30.8 °F 26.6 °F 75% 30.48 in 10.0 mi NW 3.5 mph - N/A   Clear
11:35 AM 35.6 °F 31.7 °F 24.8 °F 65% 30.47 in 10.0 mi NNW 4.6 mph - N/A   Clear
11:55 AM 35.6 °F 31.7 °F 23.0 °F 60% 30.47 in 10.0 mi North 4.6 mph - N/A   Clear
12:15 PM 37.4 °F 31.4 °F 21.2 °F 52% 30.46 in 10.0 mi North 8.1 mph - N/A   Clear
12:35 PM 37.4 °F 32.1 °F 23.0 °F 56% 30.44 in 10.0 mi NNE 6.9 mph - N/A   Clear
12:55 PM 41.0 °F 36.4 °F 21.2 °F 45% 30.42 in 10.0 mi North 6.9 mph - N/A   Clear
1:15 PM 41.0 °F 38.0 °F 19.4 °F 42% 30.41 in 10.0 mi NNE 4.6 mph - N/A   Clear
1:35 PM 42.8 °F 37.5 °F 17.6 °F 36% 30.40 in 10.0 mi NE 9.2 mph - N/A   Clear
1:55 PM 42.8 °F 38.6 °F 14.0 °F 31% 30.39 in 10.0 mi ENE 6.9 mph - N/A   Clear
2:15 PM 42.8 °F - 15.8 °F 34% 30.38 in 10.0 mi Calm Calm - N/A   Clear
2:35 PM 41.0 °F 38.0 °F 14.0 °F 33% 30.37 in 10.0 mi NNE 4.6 mph - N/A   Clear
2:55 PM 42.8 °F 39.3 °F 17.6 °F 36% 30.37 in 10.0 mi NNW 5.8 mph - N/A   Clear
3:15 PM 41.0 °F 37.1 °F 15.8 °F 36% 30.36 in 10.0 mi NNE 5.8 mph - N/A   Clear
3:35 PM 42.8 °F 41.1 °F 17.6 °F 36% 30.36 in 10.0 mi ENE 3.5 mph - N/A   Clear
3:55 PM 42.8 °F 41.1 °F 17.6 °F 36% 30.36 in 10.0 mi East 3.5 mph - N/A   Clear
4:15 PM 42.8 °F - 17.6 °F 36% 30.35 in 10.0 mi Calm Calm - N/A   Clear
4:35 PM 42.8 °F - 17.6 °F 36% 30.35 in 10.0 mi Calm Calm - N/A   Clear
4:55 PM 42.8 °F - 17.6 °F 36% 30.35 in 10.0 mi Calm Calm - N/A   Clear
5:15 PM 42.8 °F - 17.6 °F 36% 30.35 in 10.0 mi Calm Calm - N/A   Clear
5:35 PM 42.8 °F 41.1 °F 15.8 °F 34% 30.35 in 10.0 mi North 3.5 mph - N/A   Clear
5:55 PM 41.0 °F - 15.8 °F 36% 30.35 in 10.0 mi Calm Calm - N/A   Clear
6:15 PM 41.0 °F - 15.8 °F 36% 30.35 in 10.0 mi Calm Calm - N/A   Clear
6:35 PM 41.0 °F - 15.8 °F 36% 30.35 in 10.0 mi Calm Calm - N/A   Clear
6:55 PM 37.4 °F - 15.8 °F 41% 30.35 in 10.0 mi Calm Calm - N/A   Clear
7:15 PM 37.4 °F - 19.4 °F 48% 30.35 in 10.0 mi Calm Calm - N/A   Clear
7:35 PM 35.6 °F - 21.2 °F 56% 30.35 in 10.0 mi Calm Calm - N/A   Clear
7:55 PM 35.6 °F - 19.4 °F 52% 30.35 in 10.0 mi Calm Calm - N/A   Clear
8:15 PM 33.8 °F - 19.4 °F 56% 30.35 in 10.0 mi Calm Calm - N/A   Clear
8:35 PM 32.0 °F - 23.0 °F 69% 30.35 in 10.0 mi Calm Calm - N/A   Clear
8:55 PM 30.2 °F 26.7 °F 23.0 °F 75% 30.35 in 10.0 mi South 3.5 mph - N/A   Clear
9:15 PM 30.2 °F 24.3 °F 23.0 °F 75% 30.35 in 10.0 mi SSE 5.8 mph - N/A   Clear
9:35 PM 30.2 °F 24.3 °F 23.0 °F 75% 30.34 in 10.0 mi South 5.8 mph - N/A   Clear
9:55 PM 30.2 °F 22.6 °F 23.0 °F 75% 30.33 in 10.0 mi South 8.1 mph - N/A   Clear
10:15 PM 30.2 °F 23.4 °F 23.0 °F 75% 30.33 in 10.0 mi South 6.9 mph - N/A   Clear
10:35 PM 28.4 °F - 23.0 °F 80% 30.33 in 10.0 mi Calm Calm - N/A   Clear
10:55 PM 28.4 °F - 23.0 °F 80% 30.32 in 10.0 mi Calm Calm - N/A   Clear
11:15 PM 30.2 °F - 23.0 °F 75% 30.32 in 10.0 mi Calm Calm - N/A   Clear
11:35 PM 28.4 °F - 23.0 °F 80% 30.32 in 10.0 mi Calm Calm - N/A   Clear
11:55 PM 26.6 °F 22.6 °F 21.2 °F 80% 30.32 in 10.0 mi WSW 3.5 mph - N/A   Clear